User: anonymous   Login
Location: Unspecified
(0.0000°N, 0.0000°E)
Time: 22:24:57
(UTC+00:00)
Language:

TBA - TO BE ASSIGNED - Orbit

View from above orbital plane
View from above orbital plane
View from above satellite
View from above satellite

Ground track
Ground track

The orbit is defined by the following mean orbital elements,

1 68713U          26145.58335647 +.00000000 +00000-0 -55650-1 0 00000
2 68713  53.1603  36.9804 0000701 112.3923 288.8914 15.38981032    04
Epoch (UTC): 25 May 2026 14:00:01
Eccentricity: 0.0000701
inclination: 53.1603°
perigee height: 449 km
apogee height: 450 km
right ascension of ascending node: 36.9804°
argument of perigee: 112.3923°
revolutions per day: 15.38981032
mean anomaly at epoch: 288.8914°

The dashed part of the orbit path shows where the satellite is in the earth's shadow,  

DLR